TimeMST,TemperatureF,Dew PointF,Humidity,Sea Level PressureIn,VisibilityMPH,Wind Direction,Wind SpeedMPH,Gust SpeedMPH,PrecipitationIn,Events,Conditions,WindDirDegrees,DateUTC
12:56 AM,41.0,23.0,49,29.54,-9999.0,NW,10.4,-,N/A,,Unknown,320,2013-03-04 07:56:00
1:56 AM,45.0,24.1,44,29.53,-9999.0,NW,12.7,-,N/A,,Unknown,310,2013-03-04 08:56:00
2:56 AM,42.1,24.1,49,29.53,-9999.0,NW,11.5,-,N/A,,Unknown,320,2013-03-04 09:56:00
3:56 AM,37.0,23.0,57,29.55,-9999.0,West,8.1,-,N/A,,Unknown,270,2013-03-04 10:56:00
4:56 AM,39.9,24.1,53,29.57,-9999.0,WNW,8.1,-,N/A,,Unknown,300,2013-03-04 11:56:00
5:56 AM,39.0,24.1,55,29.60,-9999.0,WNW,12.7,-,N/A,,Unknown,290,2013-03-04 12:56:00
6:56 AM,42.1,25.0,51,29.64,-9999.0,WNW,10.4,-,N/A,,Unknown,300,2013-03-04 13:56:00
7:56 AM,48.9,26.1,41,29.66,-9999.0,NE,15.0,-,N/A,,Unknown,40,2013-03-04 14:56:00
8:56 AM,48.0,28.9,48,29.71,-9999.0,ENE,13.8,-,N/A,,Unknown,60,2013-03-04 15:56:00
9:56 AM,48.9,30.0,48,29.72,-9999.0,ENE,17.3,21.9,N/A,,Unknown,70,2013-03-04 16:56:00
10:56 AM,50.0,28.0,43,29.72,-9999.0,East,15.0,23.0,N/A,,Unknown,100,2013-03-04 17:56:00
11:56 AM,51.1,28.0,41,29.71,-9999.0,East,13.8,20.7,N/A,,Unknown,80,2013-03-04 18:56:00
12:56 PM,52.0,26.1,37,29.68,-9999.0,ENE,12.7,23.0,N/A,,Unknown,70,2013-03-04 19:56:00
1:56 PM,51.1,25.0,36,29.68,-9999.0,ENE,10.4,-,N/A,,Unknown,60,2013-03-04 20:56:00
2:56 PM,52.0,25.0,35,29.72,-9999.0,ENE,15.0,20.7,N/A,,Unknown,70,2013-03-04 21:56:00
3:56 PM,48.0,24.1,39,29.80,-9999.0,NE,17.3,-,N/A,,Unknown,50,2013-03-04 22:56:00
4:56 PM,39.9,28.0,63,29.90,-9999.0,NE,25.3,33.4,N/A,,Unknown,50,2013-03-04 23:56:00
5:56 PM,34.0,24.1,67,29.97,-9999.0,NE,33.4,41.4,N/A,,Unknown,40,2013-03-05 00:56:00
6:56 PM,32.0,25.0,75,30.07,-9999.0,NNE,29.9,41.4,N/A,,Unknown,30,2013-03-05 01:56:00
7:56 PM,28.9,27.0,92,30.13,-9999.0,North,24.2,31.1,0.03,,Unknown,10,2013-03-05 02:56:00
8:56 PM,28.0,25.0,88,30.17,-9999.0,North,16.1,-,0.02,,Unknown,10,2013-03-05 03:56:00
9:56 PM,24.1,21.9,91,30.19,-9999.0,NNW,11.5,-,N/A,,Unknown,340,2013-03-05 04:56:00
10:56 PM,23.0,19.9,88,30.20,-9999.0,NNW,12.7,-,N/A,,Unknown,340,2013-03-05 05:56:00
11:56 PM,21.9,19.0,89,30.22,-9999.0,NNW,12.7,-,N/A,,Unknown,340,2013-03-05 06:56:00